User: anonymous   Login
Location: Castro Valley
(37.6940°N, 122.0850°W)
Time: 04:39:59
(UTC-07:00)
Language:

PANSAT - Orbit

View from above orbital plane
View from above orbital plane
View from above satellite
View from above satellite

Ground track
Ground track

The orbit data is extracted from the following two-line orbital elements,

1 25520U 98064B   16273.46211944  .00001599  00000-0  49113-4 0  9997
2 25520  28.4583 319.6127 0005314 356.1696   3.8858 15.27929092994363
Epoch (UTC): 29 September 2016 11:05:27
Eccentricity: 0.0005314
inclination: 28.4583°
perigee height: 478 km
apogee height: 485 km
right ascension of ascending node: 319.6127°
argument of perigee: 356.1696°
revolutions per day: 15.27929092
mean anomaly at epoch: 3.8858°
orbit number at epoch: 99436

The dashed part of the orbit path shows where the satellite is in the earth's shadow,  

DLR